Cambridge, MN

4:55 AM CDT on April 22, 2018 (GMT -0500)
Cambridge Municipal

Weather History for KCBG - November, 2013

Change the Weather History Date:

Sunday, November 3, 2013

  Actual Average Record
Temperature  
Mean Temperature 45 °F -  
Max Temperature 55 °F 44 °F 72 °F (1978)
Min Temperature 35 °F 27 °F 3 °F (1991)
Degree Days  
Heating Degree Days 20    
Moisture  
Dew Point 32 °F    
Average Humidity 60    
Maximum Humidity 70    
Minimum Humidity 50    
Precipitation  
Precipitation 0.00 in - - ()
Sea Level Pressure  
Sea Level Pressure 29.98 in    
Wind  
Wind Speed 6 mph (SE)    
Max Wind Speed 16 mph    
Max Gust Speed 28 mph    
Visibility 10 miles    
Events      
Averages and records for this station are not official NWS values.
T = Trace of Precipitation, MM = Missing Value Source: NWS Daily Summary

Daily Weather History Graph

Daily Weather History Graph

Search for Another Location

Airport or City:

Astronomy

Nov. 03, 2013 Rise Set
Actual Time 6:55 AM CST 4:56 PM CST
Civil Twilight 6:24 AM CST 5:27 PM CST
Nautical Twilight 5:49 AM CST 6:02 PM CST
Astronomical Twilight 5:14 AM CST 6:37 PM CST
Moon 7:01 AM CST (11/3) 5:10 PM CST (11/3)
Length of Visible Light 11h 03m
Length of Day
10h 00m
New Moon, 0% of the Moon is Illuminated
Nov 3
New Moon
Nov 9
First Quarter
Nov 17
Full
Nov 25
Last Quarter
Dec 2
New

Hourly Weather History & Observations

Time (CST) Temp. Windchill Dew Point Humidity Pressure Visibility Wind Dir Wind Speed Gust Speed Precip Events Conditions
12:16 AM 35.6 °F - 26.6 °F 70% 30.06 in 10.0 mi Calm Calm - N/A   Clear
12:35 AM 35.6 °F - 26.6 °F 70% 30.06 in 10.0 mi Calm Calm - N/A   Clear
12:55 AM 35.6 °F - 26.6 °F 70% 30.06 in 10.0 mi Calm Calm - N/A   Clear
1:15 AM 35.6 °F - 26.6 °F 70% 30.07 in 10.0 mi Calm Calm - N/A   Clear
1:35 AM 35.6 °F - 26.6 °F 70% 30.08 in 10.0 mi Calm Calm - N/A   Clear
1:55 AM 35.6 °F - 26.6 °F 70% 30.08 in 10.0 mi Calm Calm - N/A   Clear
1:15 AM 35.6 °F - 26.6 °F 70% 30.08 in 10.0 mi Calm Calm - N/A   Clear
1:35 AM 35.6 °F - 26.6 °F 70% 30.08 in 10.0 mi Calm Calm - N/A   Clear
1:55 AM 35.6 °F 32.8 °F 26.6 °F 70% 30.08 in 10.0 mi SE 3.5 mph - N/A   Clear
2:15 AM 37.4 °F 34.9 °F 28.4 °F 70% 30.08 in 10.0 mi SE 3.5 mph - N/A   Clear
2:36 AM 37.4 °F 33.8 °F 28.4 °F 70% 30.09 in 10.0 mi SE 4.6 mph - N/A   Clear
2:55 AM 37.4 °F 33.8 °F 28.4 °F 70% 30.08 in 10.0 mi SE 4.6 mph - N/A   Scattered Clouds
3:16 AM 37.4 °F 33.8 °F 28.4 °F 70% 30.08 in 10.0 mi SE 4.6 mph - N/A   Clear
3:35 AM 37.4 °F 32.8 °F 28.4 °F 70% 30.08 in 10.0 mi SE 5.8 mph - N/A   Clear
3:56 AM 37.4 °F 34.9 °F 28.4 °F 70% 30.07 in 10.0 mi ESE 3.5 mph - N/A   Clear
4:15 AM 37.4 °F 34.9 °F 28.4 °F 70% 30.07 in 10.0 mi SE 3.5 mph - N/A   Clear
4:35 AM 37.4 °F 33.8 °F 28.4 °F 70% 30.07 in 10.0 mi ESE 4.6 mph - N/A   Clear
4:55 AM 37.4 °F 32.1 °F 28.4 °F 70% 30.06 in 10.0 mi ESE 6.9 mph - N/A   Clear
5:16 AM 37.4 °F 32.1 °F 28.4 °F 70% 30.05 in 10.0 mi ESE 6.9 mph - N/A   Clear
5:35 AM 37.4 °F 33.8 °F 28.4 °F 70% 30.06 in 10.0 mi SE 4.6 mph - N/A   Clear
5:55 AM 37.4 °F 32.8 °F 28.4 °F 70% 30.05 in 10.0 mi ESE 5.8 mph - N/A   Clear
6:16 AM 37.4 °F 33.8 °F 26.6 °F 65% 30.05 in 10.0 mi ESE 4.6 mph - N/A   Clear
6:34 AM 37.4 °F 33.8 °F 26.6 °F 65% 30.06 in 10.0 mi SE 4.6 mph - N/A   Clear
6:56 AM 35.6 °F 30.7 °F 26.6 °F 70% 30.06 in 10.0 mi ESE 5.8 mph - N/A   Clear
7:15 AM 37.4 °F 32.1 °F 26.6 °F 65% 30.06 in 10.0 mi ESE 6.9 mph - N/A   Clear
7:36 AM 37.4 °F 32.1 °F 28.4 °F 70% 30.06 in 10.0 mi SE 6.9 mph - N/A   Clear
7:55 AM 39.2 °F 33.6 °F 28.4 °F 65% 30.05 in 10.0 mi SE 8.1 mph - N/A   Clear
8:16 AM 41.0 °F 35.2 °F 28.4 °F 61% 30.05 in 10.0 mi SE 9.2 mph - N/A   Clear
8:35 AM 42.8 °F 36.6 °F 28.4 °F 57% 30.05 in 10.0 mi SE 11.5 mph 21.9 mph N/A   Clear
8:55 AM 42.8 °F 38.0 °F 30.2 °F 61% 30.04 in 10.0 mi SE 8.1 mph 18.4 mph N/A   Clear
9:16 AM 44.6 °F 40.2 °F 30.2 °F 57% 30.04 in 10.0 mi SE 8.1 mph 16.1 mph N/A   Clear
9:35 AM 44.6 °F 40.7 °F 30.2 °F 57% 30.04 in 10.0 mi SSE 6.9 mph - N/A   Clear
9:55 AM 46.4 °F 41.1 °F 32.0 °F 57% 30.03 in 10.0 mi SE 11.5 mph 18.4 mph N/A   Clear
10:15 AM 48.2 °F - 33.8 °F 58% 30.02 in 10.0 mi SE 11.5 mph - N/A   Clear
10:35 AM 48.2 °F - 33.8 °F 58% 30.02 in 10.0 mi SE 8.1 mph 20.7 mph N/A   Clear
10:55 AM 51.8 °F - 35.6 °F 54% 30.01 in 10.0 mi SSE 11.5 mph 19.6 mph N/A   Clear
11:15 AM 51.8 °F - 35.6 °F 54% 30.00 in 10.0 mi SE 13.8 mph 19.6 mph N/A   Scattered Clouds
11:35 AM 51.8 °F - 35.6 °F 54% 30.00 in 10.0 mi SE 13.8 mph 21.9 mph N/A   Overcast
11:55 AM 51.8 °F - 35.6 °F 54% 29.99 in 10.0 mi SE 10.4 mph 19.6 mph N/A   Mostly Cloudy
12:15 PM 51.8 °F - 35.6 °F 54% 29.97 in 10.0 mi SE 15.0 mph 18.4 mph N/A   Scattered Clouds
12:36 PM 51.8 °F - 35.6 °F 54% 29.95 in 10.0 mi SE 15.0 mph 25.3 mph N/A   Scattered Clouds
12:55 PM 53.6 °F - 37.4 °F 54% 29.94 in 10.0 mi SE 16.1 mph 23.0 mph N/A   Clear
1:16 PM 53.6 °F - 35.6 °F 51% 29.93 in 10.0 mi SE 15.0 mph 27.6 mph N/A   Clear
1:35 PM 53.6 °F - 37.4 °F 54% 29.92 in 10.0 mi SE 13.8 mph 25.3 mph N/A   Clear
1:55 PM 53.6 °F - 35.6 °F 51% 29.91 in 10.0 mi SE 12.7 mph 26.5 mph N/A   Clear
2:15 PM 55.4 °F - 37.4 °F 51% 29.90 in 10.0 mi ESE 11.5 mph 27.6 mph N/A   Clear
2:35 PM 53.6 °F - 35.6 °F 51% 29.90 in 10.0 mi SE 11.5 mph 23.0 mph N/A   Clear
2:56 PM 53.6 °F - 35.6 °F 51% 29.89 in 10.0 mi SE 13.8 mph 25.3 mph N/A   Clear
3:15 PM 53.6 °F - 35.6 °F 51% 29.88 in 10.0 mi SE 15.0 mph 23.0 mph N/A   Clear
3:36 PM 53.6 °F - 35.6 °F 51% 29.88 in 10.0 mi SE 12.7 mph 20.7 mph N/A   Clear
3:55 PM 53.6 °F - 35.6 °F 51% 29.88 in 10.0 mi SE 10.4 mph 20.7 mph N/A   Clear
4:16 PM 53.6 °F - 35.6 °F 51% 29.88 in 10.0 mi SE 12.7 mph 20.7 mph N/A   Clear
4:35 PM 51.8 °F - 35.6 °F 54% 29.88 in 10.0 mi SE 12.7 mph 20.7 mph N/A   Clear
4:55 PM 51.8 °F - 35.6 °F 54% 29.88 in 10.0 mi SE 13.8 mph 20.7 mph N/A   Clear
5:15 PM 51.8 °F - 35.6 °F 54% 29.89 in 10.0 mi SE 11.5 mph 21.9 mph N/A   Clear
5:35 PM 51.8 °F - 35.6 °F 54% 29.89 in 10.0 mi SE 10.4 mph 19.6 mph N/A   Clear
5:55 PM 51.8 °F - 35.6 °F 54% 29.90 in 10.0 mi SE 8.1 mph 23.0 mph N/A   Clear
6:16 PM 51.8 °F - 33.8 °F 50% 29.89 in 10.0 mi SE 9.2 mph 18.4 mph N/A   Clear
6:35 PM 51.8 °F - 35.6 °F 54% 29.89 in 10.0 mi SE 11.5 mph 19.6 mph N/A   Clear
6:55 PM 50.0 °F - 33.8 °F 54% 29.89 in 10.0 mi SE 10.4 mph 16.1 mph N/A   Clear
7:15 PM 50.0 °F - 33.8 °F 54% 29.89 in 10.0 mi SE 8.1 mph 16.1 mph N/A   Clear
7:35 PM 50.0 °F - 33.8 °F 54% 29.89 in 10.0 mi SE 12.7 mph 17.3 mph N/A   Clear
7:55 PM 48.2 °F - 33.8 °F 58% 29.89 in 10.0 mi SE 8.1 mph - N/A   Clear
8:16 PM 48.2 °F - 33.8 °F 58% 29.89 in 10.0 mi SE 10.4 mph - N/A   Clear
8:35 PM 48.2 °F - 33.8 °F 58% 29.89 in 10.0 mi SE 11.5 mph 17.3 mph N/A   Clear
8:55 PM 48.2 °F - 33.8 °F 58% 29.89 in 10.0 mi SE 10.4 mph 21.9 mph N/A   Clear
9:15 PM 48.2 °F - 33.8 °F 58% 29.89 in 10.0 mi SE 8.1 mph 16.1 mph N/A   Clear
9:35 PM 48.2 °F - 33.8 °F 58% 29.89 in 10.0 mi SE 11.5 mph 17.3 mph N/A   Clear
9:55 PM 48.2 °F - 33.8 °F 58% 29.89 in 10.0 mi SE 11.5 mph 19.6 mph N/A   Clear
10:15 PM 48.2 °F - 33.8 °F 58% 29.89 in 10.0 mi SE 12.7 mph 19.6 mph N/A   Scattered Clouds
10:36 PM 48.2 °F - 33.8 °F 58% 29.89 in 10.0 mi SE 12.7 mph 19.6 mph N/A   Scattered Clouds
10:55 PM 48.2 °F - 33.8 °F 58% 29.88 in 10.0 mi SE 12.7 mph 20.7 mph N/A   Scattered Clouds